Zurück zum Katalog

STARLINK-34807

AktivKommunikationVLEO
NORAD 65028·PAYLOAD·🇺🇸 United States

Gestartet Jul 30, 2025 von Cape Canaveral Space Force Station

Loading…

Nächste Überflüge (nächste 24 Stunden)

TLE

AktuellSource: CelesTrak SupGP

Epoche: Sep 14, 2026, 22:56 UTC

1 65028C 25161P   26257.95604167 -.00001800  00000+0 -53195-4 0  2570
2 65028  53.1569 131.5618 0001062  85.3909  36.0058 15.34383264    12

Verfolge STARLINK-34807 in Echtzeit mit AllMySat

Download on the App Store